sat.trackr.live / text

‹ back to catalog

COSMOS 2603

NORAD 67677 · 2026-023D

PAYLOAD ACTIVE UNKNOWN

§ Identity

Operator
Country
CIS
Launch date
2026-02-05
Launch site
PLMSC
Launch vehicle
Mass (kg)
RCS (m²)

External: N2YO · Heavens-Above · Gunter

§ Orbital elements

Epoch: 2026-05-25T03:57:39.379104Z

Period
94.47 min
Inclination
96.6330°
Eccentricity
0.0017993
Mean motion
15.24319819 rev/d
Perigee alt
480.5 km
Apogee alt
505.2 km
Semi-major
6,871.0 km
B*
3.3675e-4
RAAN
209.3515°
Arg perigee
212.2590°
Mean anomaly
147.7550°
Rev number
1,649

§ Raw data

COSMOS 26031 67677U 26023D   26145.16503911  .00008213  00000+0  33675-3 0  99902 67677  96.6330 209.3515 0017993 212.2590 147.7550 15.24319819 16499

JSON: /api/v1/satellites/67677 · /tle

For live sub-satellite position, see the globe view (requires WebGL).

§ Visibility from observer

Set your observer location to see the next 7 days of passes ≥ 10°. The values pass through the URL so the page stays shareable.

No JS? Fill the form by hand. The geolocation button needs JavaScript.